Location: San Pelegr�n
(42.1868°N, 0.0079°E)
Time: 14:58:38
(UTC+00:00)

YAOGAN 1 - Pass Details

Date: 24 January 2020
Orbit: 619 x 621 km, 98.0° (Epoch: 22 February)

Event Time Altitude Azimuth Distance (km) Brightness Sun altitude
Rises 17:36:51 0° 134° (SE) 2,887 5.7 -6.5°
Reaches altitude 10° 17:39:20 10° 121° (ESE) 1,985 4.8 -7.0°
Maximum altitude 17:42:49 24° 67° (ENE) 1,283 3.6 -7.6°
Drops below altitude 10° 17:46:19 10° 13° (NNE) 1,997 4.9 -8.2°
Sets 17:48:49 0° 0° (N) 2,907 5.8 -8.6°
